Eureka, NV

5:02 PM PDT on May 27, 2017 (GMT -0700)
Eureka

Weather History for KP68 - January, 2012

Change the Weather History Date:

Saturday, January 7, 2012

  Actual Average Record
Temperature  
Mean Temperature 21 °F 23 °F  
Max Temperature 37 °F 37 °F 58 °F (1996)
Min Temperature 5 °F 9 °F -36 °F (1982)
Degree Days  
Heating Degree Days 44 42  
Month to date heating degree days 203 294  
Since 1 July heating degree days 2915 3300  
Cooling Degree Days 0 0  
Month to date cooling degree days 0 0  
Year to date cooling degree days 0 0  
Moisture  
Dew Point 17 °F    
Average Humidity 66    
Maximum Humidity 84    
Minimum Humidity 48    
Precipitation  
Precipitation 0.00 in 0.02 in 0.26 in (1985)
Month to date precipitation 0.00 0.16  
Year to date precipitation 0.00 0.16  
Sea Level Pressure  
Sea Level Pressure 30.24 in    
Wind  
Wind Speed 8 mph (NNW)    
Max Wind Speed 20 mph    
Max Gust Speed 27 mph    
T = Trace of Precipitation, MM = Missing Value Source: NWS Daily Summary

Daily Weather History Graph

Daily Weather History Graph

Search for Another Location

Airport or City:

Trip Planner

Search our weather history database for the weather conditions in past years. The results will help you decide how hot, cold, wet, or windy it might be!

Date:

Astronomy

Jan. 07, 2012 Rise Set
Actual Time 7:04 AM PST 4:35 PM PST
Civil Twilight 6:34 AM PST 5:05 PM PST
Nautical Twilight 6:01 AM PST 5:39 PM PST
Astronomical Twilight 5:28 AM PST 6:11 PM PST
Moon 3:24 PM PST (1/7) 5:39 AM PST (1/7)
Length of Visible Light 10h 31m
Length of Day
9h 31m
Waxing Gibbous, 98% of the Moon is Illuminated
Jan 7
Waxing Gibbous
Jan 8
Full
Jan 16
Last Quarter
Jan 22
New
Jan 30
First Quarter

Hourly Weather History & Observations

Time (PST) Temp. Windchill Dew Point Humidity Pressure Visibility Wind Dir Wind Speed Gust Speed Precip Events Conditions
12:53 AM 27.0 °F - 10.9 °F 51% 29.98 in - Calm Calm - N/A   Unknown
1:53 AM 28.9 °F 25.2 °F 15.1 °F 56% 29.97 in - SW 3.5 mph - N/A   Unknown
2:53 AM 37.0 °F 27.0 °F 19.9 °F 50% 29.96 in - NW 18.4 mph 25.3 mph N/A   Unknown
3:53 AM 32.0 °F 24.8 °F 24.1 °F 73% 30.00 in - North 8.1 mph - N/A   Unknown
3:57 AM - - - N/A% - - North - - N/A   Unknown
4:53 AM 30.9 °F 22.8 °F 23.0 °F 72% 30.04 in - North 9.2 mph - N/A   Unknown
5:53 AM 27.0 °F - 21.9 °F 81% 30.07 in - Calm Calm - N/A   Unknown
6:53 AM 30.9 °F 22.2 °F 21.9 °F 69% 30.08 in - NNW 10.4 mph - N/A   Unknown
7:53 AM 28.9 °F 17.7 °F 23.0 °F 78% 30.14 in - NNW 15.0 mph 20.7 mph N/A   Unknown
8:53 AM 30.0 °F 19.5 °F 23.0 °F 75% 30.19 in - North 13.8 mph - N/A   Unknown
9:53 AM 28.9 °F 18.6 °F 23.0 °F 78% 30.23 in - North 12.7 mph - N/A   Unknown
10:53 AM 28.9 °F 18.2 °F 21.0 °F 72% 30.25 in - NNW 13.8 mph - N/A   Unknown
11:53 AM 28.9 °F 18.6 °F 19.9 °F 69% 30.27 in - NNW 12.7 mph - N/A   Unknown
12:53 PM 28.0 °F 20.0 °F 19.0 °F 69% 30.29 in - North 8.1 mph - N/A   Unknown
1:53 PM 28.9 °F 19.8 °F 19.0 °F 67% 30.30 in - North 10.4 mph - N/A   Unknown
2:53 PM 28.9 °F 20.4 °F 18.0 °F 64% 30.29 in - NNW 9.2 mph - N/A   Unknown
3:53 PM 28.0 °F 20.0 °F 17.1 °F 63% 30.33 in - North 8.1 mph - N/A   Unknown
4:53 PM 28.0 °F 20.8 °F 17.1 °F 63% 30.33 in - North 6.9 mph - N/A   Unknown
5:53 PM 27.0 °F 20.5 °F 16.0 °F 63% 30.36 in - NNE 5.8 mph - N/A   Unknown
6:53 PM 25.0 °F 18.1 °F 16.0 °F 69% 30.37 in - North 5.8 mph - N/A   Unknown
7:53 PM 24.1 °F 18.2 °F 15.1 °F 69% 30.38 in - NW 4.6 mph - N/A   Unknown
8:53 PM 23.0 °F 17.0 °F 15.1 °F 72% 30.41 in - NNW 4.6 mph - N/A   Unknown
9:53 PM 12.9 °F 3.8 °F 8.1 °F 81% 30.46 in - SSW 5.8 mph - N/A   Unknown
10:53 PM 12.0 °F - 7.0 °F 80% 30.48 in - Calm Calm - N/A   Unknown
11:53 PM 6.1 °F - 1.0 °F 80% 30.52 in - Calm Calm - N/A   Unknown